{"data":{"norad_id":41773,"epoch":"2026-09-20T00:05:59.881920Z","epoch_age_seconds":57135,"freshness":"FRESH","line1":"1 41773U 16058D   26263.00416530  .00008526  00000+0  18903-3 0  9994","line2":"2 41773  97.0153 281.6442 0004916  76.7788 283.4009 15.43966626559675","mean_motion":15.43966626,"eccentricity":0.0004916,"inclination_deg":97.0153,"raan_deg":281.6442,"arg_perigee_deg":76.7788,"mean_anomaly_deg":283.4009,"bstar":0.00018903,"rev_number":55967,"period_min":93.266264681553,"perigee_km":431.06707940004,"apogee_km":437.76518163796,"semimajor_km":6812.553130519,"source":"CELESTRAK","updated_at":"2026-09-20T09:00:34.707676Z"}}